CQ0XPG-11 Weather Reports


time (UTC)temp
C
wind
direction
speed
KPH
gust
KPH
rain 1hr
cm
rain 24hr
cm
rain mn
cm
humidity
%
barometer
mb
20260503184201 14 247 4.8 8.0 0.00 0.00 0.00 100 1004.2
20260503183157 14 247 4.8 8.0 0.00 0.00 0.00 100 1004.2
20260503182658 14 247 6.4 8.0 0.00 0.00 0.00 100 1004.2
20260503181654 14 247 4.8 11.3 0.00 0.00 0.00 100 1004.1
20260503181144 14 247 6.4 12.9 0.00 0.00 0.00 100 1004.2
20260503180131 14 247 6.4 9.7 0.00 0.00 0.00 100 1004.1
20260503175644 15 247 3.2 11.3 0.00 0.00 0.00 100 1004.1
20260503175152 15 247 6.4 14.5 0.00 0.00 0.00 100 1004.1
20260503174638 15 247 9.7 11.3 0.00 0.00 0.00 100 1004.2
20260503174121 15 247 12.9 14.5 0.00 0.00 0.00 100 1004.2
20260503173644 15 247 1.6 11.3 0.00 0.00 0.00 100 1004.1
20260503173119 15 247 4.8 12.9 0.00 0.00 0.00 100 1004.0
20260503172127 16 247 14.5 14.5 0.00 0.00 0.00 100 1004.0
20260503171624 16 247 11.3 14.5 0.00 0.00 0.00 100 1004.0
20260503171107 16 247 4.8 8.0 0.00 0.00 0.00 100 1003.9
20260503170629 16 247 6.4 9.7 0.00 0.00 0.00 100 1003.9
20260503150950 17 247 3.2 8.0 0.00 0.00 0.00 81 1003.8
20260503150454 17 247 0.0 8.0 0.00 0.00 0.00 89 1003.8
20260503131407 17 247 3.2 4.8 0.00 0.00 0.00 89 1004.4
20260503130844 17 247 1.6 9.7 0.00 0.00 0.00 92 1004.4
20260503130344 17 247 1.6 6.4 0.00 0.00 0.00 94 1004.5
20260503110724 17 247 1.6 4.8 0.00 0.00 0.00 100 1005.2
20260503110225 16 247 4.8 6.4 0.00 0.00 0.00 100 1005.3
20260503100155 14 247 4.8 8.0 0.00 0.00 0.00 100 1005.5
20260503081520 11 247 0.0 3.2 0.00 0.00 0.00 100 1003.0
20260503081109 11 247 0.0 3.2 0.00 0.00 0.00 100 1003.0
20260503080521 11 247 0.0 0.0 0.00 0.00 0.00 100 1003.0
20260503072533 10 247 1.6 3.2 0.00 0.00 0.00 100 1002.6
20260503072003 10 247 0.0 0.0 0.00 0.00 0.00 100 1002.4
20260503070451 9 247 1.6 3.2 0.00 0.00 0.00 100 1002.4
20260503054919 7 247 1.6 3.2 0.00 0.00 0.00 100 1002.5
20260503054403 7 247 1.6 3.2 0.00 0.00 0.00 100 1002.5
20260503053931 7 247 3.2 6.4 0.00 0.00 0.00 100 1002.6
20260503053358 7 247 3.2 4.8 0.00 0.00 0.00 100 1002.6
20260503052900 7 247 1.6 3.2 0.00 0.00 0.00 100 1002.6
20260503052354 7 247 0.0 3.2 0.00 0.00 0.00 100 1002.7
20260503051846 7 247 0.0 4.8 0.00 0.00 0.00 100 1002.7
20260503045825 7 247 0.0 4.8 0.00 0.00 0.00 100 1002.7
20260503045312 6 247 1.6 4.8 0.00 0.00 0.00 100 1002.7
20260503044827 6 247 3.2 3.2 0.00 0.00 0.00 100 1002.7
20260503044335 6 247 0.0 3.2 0.00 0.00 0.00 100 1002.7
20260503043833 6 247 3.2 3.2 0.00 0.00 0.00 100 1002.7
20260503043305 7 247 1.6 3.2 0.00 0.00 0.00 100 1002.6
20260503042314 6 247 0.0 4.8 0.00 0.00 0.00 100 1002.7
20260503041805 6 247 3.2 3.2 0.00 0.00 0.00 100 1002.8
20260503041248 6 247 1.6 3.2 0.00 0.00 0.00 100 1002.7
20260503040800 6 247 0.0 3.2 0.00 0.00 0.00 100 1002.8
20260503040303 6 247 1.6 1.6 0.00 0.00 0.00 100 1003.0
20260503035753 6 247 0.0 1.6 0.00 0.00 0.00 100 1003.0
20260503035237 6 247 0.0 3.2 0.00 0.00 0.00 100 1003.0
20260503034753 6 247 1.6 3.2 0.00 0.00 0.00 100 1002.9
20260503033815 6 247 4.8 4.8 0.00 0.00 0.00 100 1002.9
20260503033228 6 247 0.0 3.2 0.00 0.00 0.00 100 1003.0
20260503032733 6 247 4.8 4.8 0.00 0.00 0.00 100 1003.1
20260503032214 6 247 1.6 3.2 0.00 0.00 0.00 100 1003.1
20260503031735 7 247 1.6 1.6 0.00 0.00 0.00 100 1003.1
20260503031208 6 247 0.0 1.6 0.00 0.00 0.00 100 1003.2
20260503030721 6 247 0.0 1.6 0.00 0.00 0.00 100 1003.2
20260503030214 6 247 1.6 3.2 0.00 0.00 0.00 100 1003.2
20260503025714 6 247 1.6 1.6 0.00 0.00 0.00 100 1003.2
20260503025201 6 247 1.6 3.2 0.00 0.00 0.00 100 1003.2
20260503024736 6 247 0.0 4.8 0.00 0.00 0.00 100 1003.2
20260503024158 7 247 1.6 4.8 0.00 0.00 0.00 100 1003.3
20260503023702 7 247 1.6 3.2 0.00 0.00 0.00 100 1003.3
20260503023207 7 247 1.6 3.2 0.00 0.00 0.00 100 1003.4
20260503022649 7 247 1.6 3.2 0.00 0.00 0.00 100 1003.5
20260503022140 7 247 3.2 3.2 0.00 0.00 0.00 100 1003.4
20260503021645 7 247 1.6 1.6 0.00 0.00 0.00 100 1003.5
20260503021145 7 247 1.6 1.6 0.00 0.00 0.00 100 1003.5
20260503020647 7 247 0.0 1.6 0.00 0.00 0.00 100 1003.6
20260503020157 7 247 1.6 3.2 0.00 0.00 0.00 100 1003.6
20260503015649 7 247 1.6 1.6 0.00 0.00 0.00 100 1003.6
20260503015123 6 247 0.0 1.6 0.00 0.00 0.00 100 1003.6
20260503014703 6 247 0.0 4.8 0.00 0.00 0.00 100 1003.7
20260503014115 6 247 4.8 4.8 0.00 0.00 0.00 100 1003.7
20260503013658 7 247 4.8 6.4 0.00 0.00 0.00 100 1003.7
20260503013130 7 247 0.0 4.8 0.00 0.00 0.00 100 1003.8
20260503012628 7 247 0.0 4.8 0.00 0.00 0.00 100 1004.0
20260503012107 7 247 1.6 3.2 0.00 0.00 0.00 100 1003.9
20260503011635 7 247 1.6 3.2 0.00 0.00 0.00 100 1004.0
20260503011111 7 247 0.0 3.2 0.00 0.00 0.00 100 1004.1
20260503010614 7 247 1.6 6.4 0.00 0.00 0.00 100 1004.1
20260503010119 7 247 0.0 3.2 0.00 0.00 0.00 100 1004.0
20260503005616 7 247 1.6 4.8 0.00 0.00 0.00 100 1004.1
20260503005051 7 247 0.0 3.2 0.00 0.00 0.00 100 1004.1
20260503004604 7 247 1.6 3.2 0.00 0.00 0.00 100 1004.3
20260503004038 7 247 3.2 4.8 0.00 0.00 0.00 100 1004.4
20260503003603 7 247 1.6 4.8 0.00 0.00 0.00 100 1004.6
20260503003054 7 247 3.2 4.8 0.00 0.00 0.00 100 1004.7
20260503002555 7 247 0.0 4.8 0.00 0.00 0.00 100 1004.8
20260503002029 8 247 3.2 3.2 0.00 0.00 0.00 100 1004.8
20260503001607 8 247 0.0 4.8 0.00 0.00 0.00 100 1004.9
20260503001027 8 247 1.6 6.4 0.00 0.00 0.00 100 1004.9
20260503000542 8 247 0.0 4.8 0.00 0.00 0.00 100 1005.1
20260503000049 8 247 3.2 4.8 0.00 0.00 0.00 100 1005.1
20260502235531 8 247 4.8 4.8 0.00 0.00 0.00 100 1005.2
20260502235006 8 247 0.0 1.6 0.00 0.00 0.00 100 1005.2
20260502234539 9 247 0.0 1.6 0.00 0.00 0.00 100 1005.2
20260502234012 9 247 0.0 0.0 0.00 0.00 0.00 100 1005.3
20260502233535 9 247 0.0 3.2 0.00 0.00 0.00 100 1005.4
20260502233019 9 247 1.6 3.2 0.00 0.00 0.00 100 1005.5
20260502232517 10 247 0.0 1.6 0.00 0.00 0.00 100 1005.6
20260502231951 10 247 0.0 1.6 0.00 0.00 0.00 100 1005.6
20260502231509 10 247 0.0 0.0 0.00 0.00 0.00 100 1005.7
20260502230950 10 247 0.0 0.0 0.00 0.00 0.00 100 1005.7
20260502230459 10 247 0.0 0.0 0.00 0.00 0.00 100 1005.8
20260502225944 10 247 0.0 0.0 0.00 0.00 0.00 100 1005.7
20260502224928 10 247 0.0 0.0 0.00 0.00 0.00 100 1005.8
20260502224456 11 247 0.0 0.0 0.00 0.00 0.00 100 1005.9
20260502223921 11 247 0.0 0.0 0.00 0.00 0.00 100 1005.8
20260502223432 11 247 0.0 0.0 0.00 0.00 0.00 100 1005.6
20260502222927 11 247 0.0 0.0 0.00 0.00 0.38 100 1005.6
20260502222432 11 242 0.0 0.0 0.00 0.00 0.38 100 1005.7
20260502221909 11 247 0.0 0.0 0.00 0.00 0.38 100 1005.7
20260502221455 11 247 0.0 0.0 0.00 0.00 0.38 100 1005.6
20260502220907 11 247 0.0 0.0 0.00 0.00 0.38 100 1005.6
20260502220411 11 247 0.0 0.0 0.00 0.00 0.38 100 1005.6
20260502215413 12 247 0.0 1.6 0.00 0.00 0.38 100 1005.7
20260502214855 12 247 0.0 1.6 0.00 0.00 0.38 100 1005.6
20260502214406 12 247 1.6 1.6 0.00 0.00 0.38 100 1005.7
20260502213836 12 247 0.0 0.0 0.00 0.00 0.38 100 1005.7
20260502213350 12 247 0.0 0.0 0.00 0.00 0.38 100 1005.7
20260502212917 12 247 0.0 1.6 0.00 0.00 0.38 100 1005.8
20260502212336 12 247 0.0 1.6 0.00 0.00 0.38 100 1005.6
20260502211828 12 247 0.0 0.0 0.00 0.00 0.38 100 1005.7
20260502211355 12 247 0.0 0.0 0.00 0.00 0.38 100 1005.6
20260502210826 12 247 0.0 1.6 0.00 0.00 0.38 100 1005.7
20260502210336 12 247 0.0 0.0 0.00 0.00 0.38 100 1005.5
20260502205835 12 247 0.0 1.6 0.00 0.00 0.38 100 1005.5
20260502205341 12 247 0.0 3.2 0.00 0.00 0.38 100 1005.5
20260502204817 12 247 1.6 1.6 0.00 0.00 0.38 100 1005.4
20260502204331 12 247 0.0 0.0 0.00 0.00 0.38 100 1005.5
20260502203802 12 247 0.0 1.6 0.00 0.00 0.38 100 1005.3
20260502203320 12 247 1.6 1.6 0.00 0.00 0.38 100 1005.3
20260502202824 12 247 1.6 6.4 0.00 0.00 0.38 100 1005.3
20260502201751 13 247 0.0 4.8 0.00 0.00 0.38 100 1005.2
20260502201333 13 247 0.0 4.8 0.00 0.00 0.38 100 1005.0
20260502200745 13 247 3.2 4.8 0.00 0.00 0.38 100 1004.8
20260502200250 13 247 1.6 1.6 0.00 0.00 0.38 100 1004.8
20260502195315 13 247 4.8 4.8 0.00 0.00 0.38 100 1004.7
20260502194755 13 247 0.0 3.2 0.00 0.00 0.38 100 1004.6
20260502193745 14 247 0.0 3.2 0.00 0.00 0.38 100 1004.7
20260502193226 14 247 0.0 0.0 0.00 0.00 0.38 100 1004.6
20260502192737 14 247 0.0 0.0 0.00 0.00 0.38 100 1004.6
20260502192219 14 247 0.0 0.0 0.00 0.00 0.38 100 1004.6
20260502191708 14 247 0.0 1.6 0.00 0.00 0.36 100 1004.6
20260502191247 14 247 0.0 1.6 0.00 0.00 0.36 100 1004.7
20260502190707 14 247 0.0 1.6 0.00 0.00 0.36 100 1004.6
20260502190236 14 247 0.0 0.0 0.00 0.00 0.36 100 1004.6
20260502185714 14 247 1.6 3.2 0.00 0.00 0.36 100 1004.6